Location: U-46 Planetarium
(42.0300°N, 88.2740°W)
Time: 21:24:36
(UTC-05:00)

Cosmos 1980 Rocket - Pass Details

Date: 16 December 2017
Orbit: 828 x 851 km, 71.0° (Epoch: 22 July)

Event Time Altitude Azimuth Distance (km) Brightness Sun altitude
Rises 19:51:58 0° 239° (WSW) 3,398 6.0 -37.9°
Reaches altitude 10° 19:54:51 10° 253° (WSW) 2,470 5.3 -38.4°
Enters shadow 19:58:53 25° 298° (WNW) 1,672 4.1 -39.1°
